Theta_e
336 322 323 319 317 318 321 327 332 338 339 340 341 340 339 338 337 335 335 335 334 334 331 328 326 326 325 323 321 319 317 317 317 320 325 332 341 342 341 344 347 342 335
325 321 321 318 317 317 318 323 328 333 335 337 338 338 338 334 333 333 334 333 330 327 325 324 320 318 316 314 312 310 309 309 309 312 317 320 329 338 342 340 343 343 339
322 321 320 318 317 317 318 320 324 329 332 334 336 335 334 332 331 330 329 327 323 320 317 317 316 315 314 313 313 313 313 312 311 309 309 314 330 335 339 341 341 341 339
321 320 319 317 317 317 318 318 322 325 327 330 333 333 331 329 327 326 325 322 318 316 315 314 313 316 316 316 316 316 316 315 315 315 328 330 322 335 331 339 340 341 340
321 320 318 317 317 317 318 318 319 321 324 327 329 329 328 328 326 323 321 318 315 314 313 312 313 316 318 318 319 321 323 320 321 331 338 331 327 332 325 325 337 339 339
321 320 318 317 317 317 318 318 319 319 321 323 326 326 327 327 324 322 319 316 315 314 313 313 315 318 319 320 323 324 325 327 325 336 338 337 328 329 324 322 322 333 338
321 319 318 317 317 317 317 317 318 319 320 321 322 323 324 322 323 320 317 315 314 314 313 315 318 320 321 323 325 326 327 327 329 333 336 337 332 330 329 326 328 325 338
322 319 318 317 317 317 317 317 317 318 319 319 321 322 320 320 321 319 317 315 314 313 314 316 321 322 323 326 328 330 328 327 326 327 336 335 334 329 329 332 325 317 331
322 320 319 318 317 317 317 317 317 317 317 318 320 321 320 320 319 318 316 315 314 313 314 317 321 323 324 327 327 329 328 326 325 324 325 334 335 330 332 331 327 317 320
325 322 320 320 318 317 317 316 316 316 316 316 318 320 321 321 319 318 316 315 314 313 314 317 322 323 325 327 327 327 327 326 325 325 328 330 333 333 334 332 331 326 316
336 326 321 322 320 318 317 316 316 315 315 315 317 320 321 319 318 317 316 315 314 313 314 316 322 323 325 328 327 327 326 327 328 327 334 333 334 335 335 332 331 326 323
343 338 326 323 321 319 318 317 317 316 315 315 316 316 317 316 316 316 315 315 314 313 314 315 320 324 326 327 328 327 325 328 332 333 335 334 335 336 334 332 328 327 329
340 342 336 324 321 320 319 320 318 318 317 316 316 315 315 316 317 317 316 317 315 315 316 316 319 324 325 326 328 327 325 330 336 335 334 334 335 335 334 329 326 325 332
348 347 344 338 333 327 322 319 320 319 319 318 317 317 317 317 319 320 318 318 317 316 317 317 317 320 323 325 327 327 326 329 337 338 336 335 335 334 329 328 326 323 329
349 350 347 343 340 333 332 324 321 320 319 319 319 318 318 319 319 318 319 319 319 320 320 320 321 320 321 324 325 328 327 332 338 339 338 334 334 332 331 329 326 324 326
349 352 350 347 345 342 338 335 326 323 323 323 322 323 321 321 321 320 319 320 320 324 325 325 325 324 323 324 324 326 327 333 338 339 336 334 333 332 331 330 329 328 328
344 348 347 345 339 336 336 341 337 336 336 337 337 337 337 335 333 332 327 323 321 323 329 329 330 329 328 328 328 330 334 337 337 338 336 335 334 334 333 332 329 329 328
337 338 337 337 337 337 338 343 342 342 340 340 340 341 341 342 342 340 337 332 328 325 329 332 333 332 331 331 331 332 336 337 339 338 337 335 334 334 334 333 331 330 329
334 335 336 336 336 338 340 345 345 344 345 343 343 344 344 345 344 342 341 338 336 332 330 333 334 334 333 333 333 335 339 340 339 337 337 336 335 334 334 333 332 331 330
333 335 335 335 334 335 342 347 347 346 347 347 347 347 346 346 346 344 343 340 339 336 334 335 335 335 335 335 334 335 339 337 336 336 336 335 336 335 335 333 333 332 332
327 333 332 332 332 338 347 349 349 348 348 346 344 345 347 348 348 347 345 342 340 339 337 335 336 335 336 336 337 336 336 336 335 337 337 335 334 335 333 333 332 333 332
325 327 330 334 339 347 345 344 347 347 344 340 339 339 342 344 346 347 347 344 342 340 339 338 337 336 337 337 335 333 331 334 336 337 337 335 334 334 333 333 332 332 332
323 324 326 331 335 346 344 348 348 346 342 343 343 342 341 342 343 345 346 345 344 342 340 340 338 338 336 336 335 333 332 333 329 332 334 334 334 333 332 332 332 332 332
327 328 328 332 336 344 346 343 342 339 339 338 337 337 336 340 341 344 346 346 345 343 343 342 341 339 338 335 335 334 334 332 332 331 331 331 332 332 331 331 332 332 332
322 327 327 330 337 339 340 337 337 338 336 333 334 334 334 334 339 345 347 347 346 344 345 344 342 340 338 336 335 336 337 335 332 327 326 326 332 332 331 331 331 331 331
320 326 331 336 337 336 335 336 335 335 333 333 334 337 340 342 347 348 348 348 346 344 344 344 343 340 338 336 335 336 336 333 331 328 324 323 325 329 329 331 331 330 330
Wind_Speed
27 37 35 33 31 31 30 28 26 22 20 21 20 19 19 18 18 17 16 15 13 12 11 10 9 7 5 5 4 4 3 3 3 4 4 5 5 5 5 6 5 7 8
43 39 36 35 33 33 31 30 28 24 22 20 19 19 18 17 17 16 15 13 12 11 10 9 8 6 5 5 4 3 3 3 3 4 4 4 4 4 3 2 1 5 5
45 40 37 35 34 34 32 30 29 26 24 21 19 18 17 16 15 14 13 12 11 9 9 8 7 7 6 5 4 4 4 3 4 4 4 3 3 3 2 3 2 5 6
46 42 39 37 36 35 33 31 29 27 25 23 21 18 17 16 15 14 13 11 9 9 8 7 7 7 6 6 5 5 4 4 5 7 5 2 4 3 2 4 4 5 5
48 44 41 39 37 36 34 32 30 27 25 23 21 20 18 16 15 14 12 11 10 9 9 8 9 9 7 6 5 4 4 4 6 5 5 1 10 10 6 4 4 5 6
50 46 43 40 38 37 35 33 31 28 26 25 23 21 19 17 15 14 13 12 11 10 10 10 10 10 9 7 5 4 4 4 5 4 2 3 12 10 7 4 3 5 7
49 46 44 41 39 37 36 34 31 29 27 26 24 22 21 18 16 15 14 13 13 12 12 11 11 10 10 8 7 6 5 5 6 5 3 4 13 9 6 5 5 7 9
51 47 44 42 39 37 35 34 32 30 29 27 25 24 21 20 18 17 15 15 15 14 13 12 12 12 11 9 8 7 5 5 6 7 5 1 10 13 9 6 4 7 11
50 49 46 44 40 36 34 33 32 30 28 27 26 25 23 22 20 19 17 17 16 16 15 14 14 13 12 11 10 9 7 6 7 6 7 5 7 14 11 7 3 4 10
47 46 46 44 41 38 35 32 30 29 28 26 26 25 24 22 21 21 20 20 18 18 17 17 16 15 14 13 12 11 9 9 9 8 5 8 7 14 12 8 6 5 7
35 43 45 44 41 38 35 33 29 28 27 25 25 25 23 24 24 23 22 21 21 21 20 19 19 18 17 16 14 13 11 12 11 8 5 6 8 14 13 10 7 6 8
26 37 43 43 41 39 36 34 32 31 30 29 29 28 27 26 26 25 24 24 23 24 23 22 21 21 19 19 17 15 15 14 12 9 9 9 11 14 13 10 6 8 9
41 33 41 43 41 40 38 36 34 32 32 31 31 30 29 28 28 28 27 26 26 27 26 25 24 24 24 22 20 17 16 17 16 14 11 10 14 15 13 8 5 8 11
27 30 33 35 32 36 38 37 36 35 35 34 35 32 31 31 31 31 29 29 29 29 29 28 27 27 27 24 23 20 20 20 18 19 16 12 15 15 12 8 6 8 13
27 28 30 29 27 27 26 33 35 36 38 37 35 33 34 34 35 33 33 31 32 31 30 30 29 28 30 27 25 23 21 20 18 17 17 12 15 14 12 11 7 7 12
28 28 30 26 23 21 23 30 33 35 37 35 36 34 34 36 36 34 35 35 34 33 31 30 30 30 31 28 27 25 23 21 20 19 15 13 14 14 13 12 9 8 11
33 33 31 31 31 26 24 36 37 33 34 35 34 31 31 32 34 32 32 35 37 34 33 31 31 31 30 28 27 24 24 21 23 19 18 14 14 14 14 15 11 10 11
32 32 32 29 23 31 36 44 41 33 34 36 33 33 31 31 33 31 31 34 33 33 33 32 32 32 28 27 26 25 25 25 21 21 18 16 14 16 16 18 15 15 14
27 35 34 33 38 35 36 49 43 34 34 36 33 33 32 30 32 33 33 33 30 32 34 33 33 32 29 27 27 25 24 25 21 20 22 22 19 18 18 18 19 18 16
32 39 46 42 39 40 42 46 43 38 36 35 35 34 32 31 33 33 33 34 30 32 33 32 33 31 29 27 25 26 21 19 16 18 20 19 19 18 18 16 16 19 18
22 36 38 29 42 42 36 35 36 37 46 44 41 38 35 33 34 34 34 35 33 35 35 35 31 28 27 24 15 15 14 15 18 18 21 19 17 15 12 16 18 19 20
29 29 32 39 35 45 42 41 33 37 44 44 40 36 34 34 36 35 36 37 36 35 34 31 33 21 20 21 10 4 1 5 11 18 24 20 18 15 15 17 15 15 18
31 28 30 37 49 48 49 39 28 27 18 26 31 30 30 32 34 34 35 36 35 34 34 33 33 29 17 21 19 8 1 4 1 2 3 9 11 12 13 15 16 15 19
27 25 24 26 46 48 47 38 37 28 20 29 26 27 24 23 26 33 34 34 33 34 32 29 26 27 23 16 17 17 9 6 2 3 3 5 7 11 11 13 15 17 20
32 28 26 23 36 43 48 41 37 30 33 31 30 24 22 27 27 31 31 30 29 29 24 24 25 25 25 21 18 9 15 8 5 3 3 4 7 9 12 13 13 15 20
28 25 24 25 31 41 37 38 37 34 33 29 27 20 22 24 26 29 26 24 25 27 21 22 25 21 23 22 23 17 11 5 6 4 2 3 3 5 6 8 10 15 16
Wind_Direction
178 161 158 154 149 144 143 143 142 141 138 135 134 133 133 132 131 132 132 135 135 135 138 141 145 153 164 174 184 193 196 188 173 136 115 98 93 93 107 130 132 124 120
166 162 162 158 154 149 148 147 146 147 146 144 143 141 138 138 139 139 139 139 139 140 141 145 145 154 158 166 170 173 172 161 151 152 155 132 102 100 103 123 124 135 133
161 163 166 163 158 153 152 152 152 153 152 152 153 150 149 149 148 147 146 145 145 147 147 150 152 155 156 151 143 130 122 120 116 118 126 140 128 99 93 102 134 160 160
160 165 169 167 162 158 157 157 158 160 159 160 162 162 161 161 159 156 157 159 159 157 160 164 165 163 160 161 147 139 130 121 119 114 101 125 190 187 155 134 141 152 175
162 168 173 171 166 163 163 163 164 166 166 168 170 171 171 172 170 168 169 172 174 178 182 183 180 179 175 177 164 150 137 136 136 116 75 93 186 194 184 160 167 176 178
164 171 175 173 172 168 168 169 171 172 173 176 177 178 180 180 181 180 180 185 188 193 195 196 191 190 187 186 182 179 170 173 166 156 78 54 180 181 186 198 239 204 196
167 173 177 176 176 170 172 173 176 178 181 183 184 185 188 189 193 192 193 196 199 203 205 206 204 201 203 199 202 200 195 204 202 216 218 338 206 201 207 220 246 229 207
169 176 178 180 179 174 175 178 180 185 188 189 191 194 197 198 200 203 205 207 210 211 214 215 215 216 214 217 223 229 226 233 231 244 229 307 213 208 212 222 247 228 215
173 176 180 183 181 178 179 183 184 189 194 196 198 200 203 204 207 212 212 217 218 219 220 223 224 226 227 230 234 245 254 264 267 266 251 223 201 208 213 219 229 243 219
174 179 182 186 184 181 182 188 189 194 199 202 205 207 207 211 215 219 220 223 224 225 226 226 229 231 234 236 243 252 264 269 270 275 266 229 222 212 217 216 227 239 231
173 184 187 188 187 186 184 191 195 200 204 208 211 213 214 219 221 224 226 227 229 230 230 231 231 234 237 241 245 251 260 266 272 256 249 241 246 215 216 215 227 231 222
180 189 192 194 190 189 188 194 197 202 207 211 214 216 220 225 226 228 230 231 233 235 234 234 235 238 239 243 246 249 254 265 272 252 248 263 257 219 212 218 230 226 217
192 188 196 198 197 194 192 197 200 205 212 215 219 220 223 227 228 229 230 232 232 234 234 234 234 238 241 243 247 250 253 259 267 267 266 277 248 215 217 226 244 225 214
177 186 196 196 203 201 198 202 206 209 215 219 222 222 224 228 229 230 232 233 236 235 237 236 236 240 245 245 250 251 256 259 264 269 269 272 226 215 230 234 242 227 212
171 184 191 192 198 206 213 213 213 217 222 225 226 228 229 230 232 234 235 236 237 238 238 239 239 241 245 246 250 253 255 253 261 266 262 239 230 222 236 234 234 227 222
167 180 186 187 188 199 210 233 221 223 228 229 231 231 234 237 238 237 239 237 239 238 239 242 243 243 246 248 250 252 255 249 252 264 248 225 222 228 234 235 235 228 227
159 166 171 180 172 179 218 241 231 222 226 229 232 235 234 238 239 239 239 239 239 240 240 241 243 245 247 250 250 252 253 251 248 260 234 236 234 236 237 237 231 245 242
165 174 179 181 193 213 225 238 233 229 230 233 234 238 236 237 241 237 238 237 237 237 237 237 237 240 242 246 248 250 252 254 250 241 241 239 239 239 237 240 236 241 241
214 187 193 202 206 214 224 218 226 231 232 236 238 239 240 240 242 241 240 240 235 234 232 235 235 236 237 239 243 249 257 257 237 240 245 253 259 253 249 250 239 236 236
221 229 220 215 213 213 217 215 219 225 227 233 236 239 242 246 245 241 242 241 236 231 229 229 232 232 234 243 245 244 238 231 246 259 257 268 260 255 257 258 240 238 240
213 223 225 232 206 211 202 203 212 219 227 230 232 236 238 241 246 246 243 240 235 229 230 228 228 228 228 236 218 212 232 246 254 259 265 274 263 254 245 250 253 249 243
241 220 227 230 227 211 208 210 210 214 220 222 226 227 229 233 239 242 242 237 232 226 226 228 225 215 223 215 188 148 309 274 254 258 260 260 260 253 250 251 248 247 231
239 247 237 228 223 218 211 208 201 211 207 218 229 232 237 241 244 241 237 234 231 226 223 226 225 220 201 200 206 183 110 226 324 314 280 246 244 247 248 249 254 244 230
240 232 237 236 214 208 207 199 198 202 202 225 230 237 239 248 248 236 231 230 229 222 223 224 222 221 217 188 204 212 196 152 169 330 301 252 236 241 255 261 250 239 227
243 232 240 236 216 207 207 209 209 211 222 232 239 243 250 255 250 226 222 220 219 210 217 224 217 216 216 208 195 184 217 216 192 154 255 292 251 259 268 263 249 233 230
249 223 214 214 219 215 209 213 217 219 225 229 238 242 239 237 220 213 210 208 211 217 216 223 224 218 210 215 206 207 192 167 193 177 162 239 221 273 268 251 240 226 214